Zurück zum Katalog

COSMOS 2127

AktivMilitärLEO
NORAD 21102·PAYLOAD·🇷🇺 Russia

Gestartet Feb 12, 1991 von Plesetsk Cosmodrome

Loading…

Nächste Überflüge (nächste 24 Stunden)

TLE

AktuellSource: Space-Track

Epoche: Sep 14, 2026, 09:56 UTC

1 21102U 91009C   26257.41425049 -.00000023  00000-0 -45899-4 0  9992
2 21102  74.0263 259.3587 0007077 214.8638 214.8674 12.48180355621549

Verfolge COSMOS 2127 in Echtzeit mit AllMySat

Download on the App Store